RYR80NQ LIMC-LHBP

Flight info

Callsign RYR80NQ
Flight time 1h 12m
Altitude 34000
Route SRN7W OSKOR M985 NESTI DCT MOBDO DCT MALUG DCT EVAXI DCT GOTAR DCT SIRDU DCT OGVUN DCT VAJDI
Aircraft B38M/M-SADE3FGILRWY/SB1

Departure

Time 2026-05-06 12:29
Airport Milan Malpensa International Airport (LIMC)

Arrival

Time 2026-05-06 13:41
Airport Budapest Liszt Ferenc International Airport (LHBP)
Time Latitude Longitude Altitude Speed Heading
2026-05-06 12:00 45.63181 8.71564 743 ft 0 kts 236°
2026-05-06 12:14 45.63183 8.71570 743 ft 4 kts 236°
2026-05-06 12:14 45.63199 8.71600 741 ft 4 kts 226°
2026-05-06 12:14 45.63219 8.71622 742 ft 2 kts 202°
2026-05-06 12:14 45.63237 8.71636 742 ft 4 kts 234°
2026-05-06 12:15 45.63238 8.71663 742 ft 4 kts 298°
2026-05-06 12:15 45.63226 8.71682 741 ft 4 kts
2026-05-06 12:15 45.63204 8.71678 742 ft 4 kts 356°
2026-05-06 12:15 45.63180 8.71684 741 ft 1 kts 348°
2026-05-06 12:16 45.63179 8.71684 741 ft 2 kts 348°
2026-05-06 12:20 45.63180 8.71683 741 ft 1 kts 348°
2026-05-06 12:20 45.63215 8.71674 742 ft 11 kts 348°
2026-05-06 12:20 45.63289 8.71709 743 ft 11 kts 72°
2026-05-06 12:20 45.63299 8.71858 740 ft 18 kts 85°
2026-05-06 12:21 45.63301 8.71892 740 ft 0 kts 85°
2026-05-06 12:21 45.63302 8.71919 743 ft 8 kts 95°
2026-05-06 12:21 45.63255 8.71975 743 ft 14 kts 172°
2026-05-06 12:21 45.63091 8.72019 743 ft 31 kts 168°
2026-05-06 12:22 45.62884 8.72078 743 ft 33 kts 169°
2026-05-06 12:22 45.62685 8.72133 743 ft 29 kts 168°
2026-05-06 12:22 45.62492 8.72186 743 ft 27 kts 168°
2026-05-06 12:22 45.62301 8.72239 742 ft 29 kts 168°
2026-05-06 12:23 45.62116 8.72293 744 ft 27 kts 168°
2026-05-06 12:23 45.61926 8.72344 744 ft 28 kts 169°
2026-05-06 12:23 45.61727 8.72398 743 ft 30 kts 168°
2026-05-06 12:23 45.61534 8.72452 742 ft 29 kts 168°
2026-05-06 12:24 45.61404 8.72433 742 ft 11 kts 244°
2026-05-06 12:24 45.61390 8.72321 744 ft 13 kts 262°
2026-05-06 12:24 45.61343 8.72201 744 ft 16 kts 187°
2026-05-06 12:24 45.61185 8.72235 744 ft 29 kts 169°
2026-05-06 12:25 45.60981 8.72293 742 ft 29 kts 169°
2026-05-06 12:25 45.60779 8.72347 743 ft 30 kts 169°
2026-05-06 12:25 45.60637 8.72498 743 ft 27 kts 96°
2026-05-06 12:25 45.60617 8.72769 744 ft 28 kts 96°
2026-05-06 12:26 45.60596 8.73052 742 ft 29 kts 95°
2026-05-06 12:26 45.60659 8.73286 744 ft 27 kts 21°
2026-05-06 12:26 45.60838 8.73382 743 ft 28 kts 22°
2026-05-06 12:26 45.61016 8.73371 743 ft 26 kts 348°
2026-05-06 12:27 45.61203 8.73317 743 ft 28 kts 349°
2026-05-06 12:27 45.61401 8.73267 743 ft 30 kts 348°
2026-05-06 12:27 45.61591 8.73224 744 ft 16 kts 15°
2026-05-06 12:27 45.61619 8.73291 741 ft 9 kts 81°
2026-05-06 12:28 45.61625 8.73437 744 ft 20 kts 108°
2026-05-06 12:28 45.61588 8.73645 743 ft 23 kts 80°
2026-05-06 12:28 45.61701 8.73713 741 ft 20 kts 349°
2026-05-06 12:28 45.61985 8.73635 740 ft 77 kts 349°
2026-05-06 12:29 45.62752 8.73423 740 ft 144 kts 349°
2026-05-06 12:29 45.63875 8.73103 938 ft 178 kts 351°
2026-05-06 12:29 45.64882 8.72882 2208 ft 132 kts 354°
2026-05-06 12:29 45.65932 8.72731 2422 ft 168 kts 356°
2026-05-06 12:30 45.67105 8.72774 3069 ft 174 kts 12°
2026-05-06 12:30 45.68258 8.73487 3567 ft 191 kts 43°
2026-05-06 12:30 45.69028 8.75079 4105 ft 203 kts 75°
2026-05-06 12:30 45.69458 8.77083 4744 ft 217 kts 75°
2026-05-06 12:31 45.69958 8.79140 5593 ft 220 kts 73°
2026-05-06 12:31 45.70782 8.81019 6421 ft 229 kts 46°
2026-05-06 12:31 45.71944 8.82629 7060 ft 240 kts 56°
2026-05-06 12:31 45.72531 8.84901 7508 ft 252 kts 91°
2026-05-06 12:32 45.72160 8.87288 8429 ft 244 kts 122°
2026-05-06 12:32 45.71214 8.89298 9350 ft 247 kts 129°
2026-05-06 12:32 45.70193 8.91322 10192 ft 252 kts 130°
2026-05-06 12:32 45.69152 8.93356 11071 ft 255 kts 131°
2026-05-06 12:33 45.68091 8.95405 11945 ft 258 kts 131°
2026-05-06 12:33 45.67010 8.97480 12823 ft 262 kts 131°
2026-05-06 12:33 45.65912 8.99577 13713 ft 265 kts 131°
2026-05-06 12:33 45.64903 9.01847 14381 ft 284 kts 115°
2026-05-06 12:34 45.64575 9.04746 14882 ft 311 kts 92°
2026-05-06 12:34 45.64630 9.07944 15325 ft 331 kts 94°
2026-05-06 12:34 45.64651 9.11313 15872 ft 347 kts 94°
2026-05-06 12:34 45.64672 9.14818 16459 ft 358 kts 94°
2026-05-06 12:35 45.64691 9.18401 17224 ft 362 kts 94°
2026-05-06 12:35 45.64709 9.22031 17980 ft 368 kts 94°
2026-05-06 12:35 45.64726 9.25706 18639 ft 372 kts 94°
2026-05-06 12:35 45.64742 9.29436 19240 ft 378 kts 95°
2026-05-06 12:36 45.64758 9.33216 19846 ft 383 kts 95°
2026-05-06 12:36 45.64772 9.37045 20432 ft 388 kts 95°
2026-05-06 12:36 45.64785 9.40923 21221 ft 393 kts 95°
2026-05-06 12:36 45.64796 9.44850 21777 ft 398 kts 95°
2026-05-06 12:37 45.64807 9.48833 22351 ft 403 kts 96°
2026-05-06 12:37 45.64817 9.52861 22916 ft 408 kts 96°
2026-05-06 12:37 45.64825 9.56932 23309 ft 412 kts 96°
2026-05-06 12:37 45.64833 9.61043 23802 ft 416 kts 96°
2026-05-06 12:38 45.64849 9.65200 24310 ft 420 kts 96°
2026-05-06 12:38 45.64863 9.69383 24800 ft 423 kts 96°
2026-05-06 12:38 45.64875 9.73610 25279 ft 427 kts 96°
2026-05-06 12:38 45.64886 9.77862 25756 ft 430 kts 97°
2026-05-06 12:39 45.64892 9.80699 26058 ft 432 kts 97°
2026-05-06 12:39 45.64900 9.85012 26465 ft 436 kts 97°
2026-05-06 12:39 45.64907 9.89369 26860 ft 441 kts 97°
2026-05-06 12:39 45.64912 9.93765 27331 ft 444 kts 97°
2026-05-06 12:40 45.64916 9.98187 27737 ft 447 kts 97°
2026-05-06 12:40 45.64918 10.04099 28305 ft 451 kts 97°
2026-05-06 12:40 45.64953 10.07136 28571 ft 456 kts 92°
2026-05-06 12:40 45.65586 10.11645 28993 ft 471 kts 74°
2026-05-06 12:41 45.67073 10.15866 29395 ft 481 kts 58°
2026-05-06 12:41 45.69023 10.19784 29727 ft 486 kts 57°
2026-05-06 12:41 45.70947 10.23694 30066 ft 489 kts 57°
2026-05-06 12:41 45.72917 10.27663 30457 ft 490 kts 56°
2026-05-06 12:42 45.74899 10.31645 30798 ft 493 kts 56°
2026-05-06 12:42 45.76891 10.35650 31127 ft 495 kts 56°
2026-05-06 12:42 45.78896 10.39686 31477 ft 498 kts 57°
2026-05-06 12:42 45.80846 10.43792 31815 ft 499 kts 59°
2026-05-06 12:43 45.82743 10.47974 32138 ft 502 kts 59°
2026-05-06 12:43 45.84662 10.52173 32505 ft 504 kts 59°
2026-05-06 12:43 45.86584 10.56373 32957 ft 504 kts 59°
2026-05-06 12:43 45.88505 10.60573 33422 ft 503 kts 59°
2026-05-06 12:44 45.90425 10.64778 33767 ft 505 kts 60°
2026-05-06 12:44 45.92353 10.69006 33927 ft 506 kts 60°
2026-05-06 12:44 45.96179 10.77414 33897 ft 499 kts 59°
2026-05-06 12:45 45.99964 10.85760 33880 ft 498 kts 59°
2026-05-06 12:46 46.05627 10.98292 33905 ft 497 kts 60°
2026-05-06 12:46 46.09391 11.06654 33926 ft 498 kts 60°
2026-05-06 12:47 46.13154 11.15035 33949 ft 498 kts 60°
2026-05-06 12:47 46.16905 11.23414 33916 ft 496 kts 59°
2026-05-06 12:48 46.20624 11.31752 33876 ft 493 kts 59°
2026-05-06 12:48 46.24328 11.40078 33879 ft 493 kts 59°
2026-05-06 12:49 46.28029 11.48422 33878 ft 493 kts 60°
2026-05-06 12:49 46.31722 11.56773 33897 ft 493 kts 60°
2026-05-06 12:50 46.35403 11.65122 33923 ft 493 kts 60°
2026-05-06 12:50 46.39091 11.73509 33889 ft 494 kts 60°
2026-05-06 12:51 46.42702 11.81982 33872 ft 492 kts 66°
2026-05-06 12:51 46.45803 11.90762 33843 ft 493 kts 65°
2026-05-06 12:52 46.48992 11.99564 33902 ft 493 kts 65°
2026-05-06 12:52 46.52185 12.08364 33839 ft 492 kts 65°
2026-05-06 12:53 46.55374 12.17182 33896 ft 493 kts 65°
2026-05-06 12:53 46.58549 12.25989 33902 ft 491 kts 65°
2026-05-06 12:54 46.61704 12.34774 33900 ft 489 kts 65°
2026-05-06 12:54 46.64849 12.43558 33903 ft 490 kts 65°
2026-05-06 12:55 46.67992 12.52360 33913 ft 490 kts 65°
2026-05-06 12:55 46.70603 12.61393 33909 ft 478 kts 85°
2026-05-06 12:56 46.71478 12.70985 33833 ft 478 kts 88°
2026-05-06 12:56 46.72270 12.80589 33898 ft 477 kts 89°
2026-05-06 12:57 46.73025 12.90199 33882 ft 477 kts 89°
2026-05-06 12:57 46.73770 12.99822 33929 ft 479 kts 89°
2026-05-06 12:58 46.74504 13.09395 33927 ft 478 kts 89°
2026-05-06 12:58 46.75233 13.19019 33898 ft 479 kts 89°
2026-05-06 12:59 46.75956 13.28679 33905 ft 479 kts 89°
2026-05-06 12:59 46.76671 13.38339 33917 ft 479 kts 89°
2026-05-06 13:00 46.77380 13.48002 33912 ft 478 kts 89°
2026-05-06 13:00 46.78242 13.57628 33844 ft 478 kts 86°
2026-05-06 13:01 46.79144 13.67260 33922 ft 479 kts 86°
2026-05-06 13:01 46.80028 13.76875 33907 ft 478 kts 86°
2026-05-06 13:02 46.80903 13.86481 33885 ft 476 kts 86°
2026-05-06 13:02 46.81768 13.96080 33886 ft 478 kts 86°
2026-05-06 13:03 46.82626 14.05685 33883 ft 476 kts 86°
2026-05-06 13:03 46.83473 14.15274 33875 ft 476 kts 86°
2026-05-06 13:04 46.84314 14.24869 33898 ft 476 kts 86°
2026-05-06 13:04 46.85145 14.34451 33880 ft 475 kts 86°
2026-05-06 13:05 46.85968 14.44029 33860 ft 475 kts 86°
2026-05-06 13:05 46.86780 14.53590 33891 ft 474 kts 86°
2026-05-06 13:06 46.87586 14.63160 33898 ft 475 kts 86°
2026-05-06 13:06 46.88383 14.72738 33890 ft 474 kts 86°
2026-05-06 13:07 46.89172 14.82308 33898 ft 474 kts 86°
2026-05-06 13:07 46.89951 14.91868 33887 ft 474 kts 85°
2026-05-06 13:08 46.90727 15.01477 33870 ft 476 kts 86°
2026-05-06 13:08 46.91495 15.11095 33865 ft 475 kts 86°
2026-05-06 13:09 46.92253 15.20689 33856 ft 475 kts 86°
2026-05-06 13:09 46.93004 15.30301 33835 ft 476 kts 86°
2026-05-06 13:10 46.93740 15.39830 33856 ft 474 kts 86°
2026-05-06 13:10 46.94473 15.49418 33855 ft 474 kts 86°
2026-05-06 13:11 46.95199 15.59004 33867 ft 473 kts 86°
2026-05-06 13:11 46.95913 15.68573 33851 ft 473 kts 86°
2026-05-06 13:12 46.96620 15.78142 33857 ft 472 kts 85°
2026-05-06 13:12 46.97316 15.87680 33871 ft 471 kts 85°
2026-05-06 13:13 46.98005 15.97224 33876 ft 471 kts 86°
2026-05-06 13:13 46.98688 16.06756 33877 ft 471 kts 86°
2026-05-06 13:14 46.99361 16.16269 33800 ft 464 kts 86°
2026-05-06 13:14 46.99699 16.20952 33234 ft 462 kts 84°
2026-05-06 13:14 47.00502 16.25509 32518 ft 465 kts 68°
2026-05-06 13:14 47.01671 16.29897 32004 ft 457 kts 71°
2026-05-06 13:15 47.02697 16.34227 31659 ft 442 kts 71°
2026-05-06 13:15 47.03684 16.38414 31320 ft 428 kts 71°
2026-05-06 13:15 47.04642 16.42490 30910 ft 420 kts 71°
2026-05-06 13:15 47.05588 16.46531 30494 ft 418 kts 72°
2026-05-06 13:16 47.06531 16.50564 30042 ft 417 kts 72°
2026-05-06 13:16 47.07469 16.54582 29553 ft 416 kts 72°
2026-05-06 13:16 47.08402 16.58587 29111 ft 413 kts 72°
2026-05-06 13:16 47.09327 16.62562 28703 ft 410 kts 72°
2026-05-06 13:17 47.10241 16.66502 28310 ft 406 kts 72°
2026-05-06 13:17 47.11148 16.70414 27905 ft 403 kts 72°
2026-05-06 13:17 47.12047 16.74299 27527 ft 400 kts 72°
2026-05-06 13:17 47.12937 16.78156 27133 ft 398 kts 72°
2026-05-06 13:18 47.13821 16.81992 26749 ft 395 kts 72°
2026-05-06 13:18 47.14698 16.85803 26362 ft 393 kts 72°
2026-05-06 13:18 47.15568 16.89594 25989 ft 391 kts 72°
2026-05-06 13:18 47.16433 16.93366 25615 ft 389 kts 72°
2026-05-06 13:19 47.17280 16.97068 25256 ft 387 kts 72°
2026-05-06 13:19 47.18135 17.00810 24882 ft 385 kts 72°
2026-05-06 13:19 47.18984 17.04535 24505 ft 384 kts 73°
2026-05-06 13:19 47.19829 17.08245 24141 ft 382 kts 73°
2026-05-06 13:20 47.20669 17.11940 23773 ft 380 kts 73°
2026-05-06 13:20 47.21504 17.15621 23405 ft 379 kts 73°
2026-05-06 13:20 47.22334 17.19289 22969 ft 377 kts 73°
2026-05-06 13:20 47.23153 17.22909 22596 ft 369 kts 73°
2026-05-06 13:21 47.23952 17.26446 22263 ft 361 kts 73°
2026-05-06 13:21 47.24741 17.29942 21918 ft 359 kts 73°
2026-05-06 13:21 47.25543 17.33404 21559 ft 356 kts 71°
2026-05-06 13:21 47.26410 17.36818 21176 ft 355 kts 71°
2026-05-06 13:22 47.27264 17.40208 20861 ft 352 kts 71°
2026-05-06 13:22 47.28108 17.43576 20528 ft 349 kts 71°
2026-05-06 13:22 47.28944 17.46924 20200 ft 347 kts 71°
2026-05-06 13:22 47.29775 17.50254 19866 ft 345 kts 71°
2026-05-06 13:23 47.30598 17.53562 19537 ft 343 kts 72°
2026-05-06 13:23 47.31416 17.56856 19206 ft 342 kts 72°
2026-05-06 13:23 47.32230 17.60133 18873 ft 340 kts 72°
2026-05-06 13:23 47.33039 17.63399 18547 ft 338 kts 72°
2026-05-06 13:24 47.33844 17.66651 18224 ft 337 kts 72°
2026-05-06 13:24 47.34644 17.69888 17848 ft 336 kts 72°
2026-05-06 13:24 47.35439 17.73110 17512 ft 333 kts 72°
2026-05-06 13:24 47.36225 17.76303 17188 ft 330 kts 72°
2026-05-06 13:25 47.37005 17.79473 16872 ft 327 kts 72°
2026-05-06 13:25 47.37769 17.82580 16569 ft 325 kts 72°
2026-05-06 13:25 47.38381 17.85770 16183 ft 321 kts 88°
2026-05-06 13:25 47.38377 17.89020 15902 ft 315 kts 95°
2026-05-06 13:26 47.38336 17.92239 15617 ft 312 kts 95°
2026-05-06 13:26 47.38285 17.95428 15312 ft 310 kts 95°
2026-05-06 13:26 47.38226 17.98600 15009 ft 309 kts 95°
2026-05-06 13:26 47.38162 18.01758 14698 ft 307 kts 95°
2026-05-06 13:27 47.38096 18.04900 14398 ft 306 kts 95°
2026-05-06 13:27 47.38028 18.08028 14102 ft 304 kts 95°
2026-05-06 13:27 47.37958 18.11141 13787 ft 303 kts 95°
2026-05-06 13:27 47.37889 18.14248 13473 ft 302 kts 95°
2026-05-06 13:28 47.37819 18.17342 13132 ft 301 kts 95°
2026-05-06 13:28 47.37747 18.20416 12827 ft 299 kts 95°
2026-05-06 13:28 47.37677 18.23470 12537 ft 297 kts 95°
2026-05-06 13:28 47.37607 18.26508 12244 ft 295 kts 94°
2026-05-06 13:29 47.37688 18.28513 12000 ft 298 kts 80°
2026-05-06 13:29 47.38384 18.31408 11635 ft 300 kts 69°
2026-05-06 13:29 47.39431 18.35210 11243 ft 298 kts 70°
2026-05-06 13:29 47.40213 18.38034 10935 ft 297 kts 70°
2026-05-06 13:30 47.40731 18.39897 10727 ft 296 kts 70°
2026-05-06 13:30 47.41513 18.42704 10412 ft 296 kts 70°
2026-05-06 13:30 47.42296 18.45511 10095 ft 295 kts 70°
2026-05-06 13:30 47.43078 18.48317 9783 ft 295 kts 70°
2026-05-06 13:31 47.43859 18.51120 9449 ft 294 kts 70°
2026-05-06 13:31 47.44633 18.53902 9153 ft 292 kts 70°
2026-05-06 13:31 47.45402 18.56670 8845 ft 290 kts 70°
2026-05-06 13:31 47.46165 18.59418 8544 ft 289 kts 70°
2026-05-06 13:32 47.46925 18.62159 8231 ft 288 kts 70°
2026-05-06 13:32 47.47682 18.64895 7918 ft 287 kts 71°
2026-05-06 13:32 47.48436 18.67623 7600 ft 286 kts 70°
2026-05-06 13:32 47.49187 18.70338 7296 ft 285 kts 70°
2026-05-06 13:33 47.49926 18.73017 6993 ft 284 kts 70°
2026-05-06 13:33 47.50682 18.75761 6689 ft 284 kts 71°
2026-05-06 13:33 47.51418 18.78433 6385 ft 285 kts 71°
2026-05-06 13:33 47.52165 18.81149 6048 ft 283 kts 71°
2026-05-06 13:34 47.52903 18.83833 5819 ft 279 kts 71°
2026-05-06 13:34 47.53615 18.86423 5673 ft 264 kts 71°
2026-05-06 13:34 47.54442 18.88769 5513 ft 254 kts 51°
2026-05-06 13:34 47.55701 18.90548 5353 ft 247 kts 44°
2026-05-06 13:35 47.56942 18.92241 5227 ft 238 kts 43°
2026-05-06 13:35 47.58129 18.93916 5104 ft 234 kts 52°
2026-05-06 13:35 47.58823 18.96026 4882 ft 227 kts 85°
2026-05-06 13:35 47.58735 18.98281 4615 ft 216 kts 115°
2026-05-06 13:36 47.58029 19.00175 4334 ft 209 kts 131°
2026-05-06 13:36 47.57168 19.01882 4075 ft 204 kts 135°
2026-05-06 13:36 47.56287 19.03478 3784 ft 196 kts 137°
2026-05-06 13:36 47.55411 19.04966 3521 ft 188 kts 139°
2026-05-06 13:37 47.54573 19.06359 3288 ft 169 kts 140°
2026-05-06 13:37 47.53840 19.07562 3108 ft 149 kts 142°
2026-05-06 13:37 47.53168 19.08651 2924 ft 141 kts 142°
2026-05-06 13:37 47.52516 19.09705 2732 ft 139 kts 142°
2026-05-06 13:38 47.51860 19.10762 2530 ft 140 kts 140°
2026-05-06 13:38 47.51202 19.11829 2339 ft 140 kts 140°
2026-05-06 13:38 47.50545 19.12891 2142 ft 140 kts 140°
2026-05-06 13:38 47.49888 19.13954 1956 ft 139 kts 141°
2026-05-06 13:39 47.49236 19.15011 1763 ft 139 kts 140°
2026-05-06 13:39 47.48582 19.16074 1583 ft 140 kts 142°
2026-05-06 13:39 47.47926 19.17139 1400 ft 140 kts 141°
2026-05-06 13:39 47.47279 19.18185 1216 ft 139 kts 138°
2026-05-06 13:40 47.46617 19.19264 1008 ft 142 kts 140°
2026-05-06 13:40 47.45933 19.20361 826 ft 147 kts 140°
2026-05-06 13:40 47.45240 19.21491 614 ft 149 kts 139°
2026-05-06 13:40 47.44573 19.22577 456 ft 136 kts 139°
2026-05-06 13:41 47.44034 19.23434 457 ft 86 kts 132°
2026-05-06 13:41 47.43662 19.24028 455 ft 73 kts 131°
2026-05-06 13:41 47.43364 19.24512 455 ft 54 kts 132°
2026-05-06 13:41 47.43166 19.24833 459 ft 29 kts 132°
2026-05-06 13:42 47.43107 19.25055 460 ft 23 kts 69°
2026-05-06 13:42 47.43206 19.25203 460 ft 21 kts 40°
2026-05-06 13:42 47.43321 19.25359 460 ft 24 kts 43°
2026-05-06 13:42 47.43449 19.25528 459 ft 26 kts 42°
2026-05-06 13:43 47.43589 19.25715 460 ft 28 kts 42°
2026-05-06 13:43 47.43731 19.25909 460 ft 21 kts 53°
2026-05-06 13:43 47.43721 19.25997 458 ft 7 kts 134°
2026-05-06 13:43 47.43679 19.26086 460 ft 15 kts 104°
2026-05-06 13:44 47.43676 19.26304 460 ft 26 kts 101°
2026-05-06 13:44 47.43611 19.26375 460 ft 2 kts 220°
2026-05-06 13:44 47.43597 19.26358 459 ft 2 kts 222°
2026-05-06 13:44 47.43591 19.26350 459 ft 0 kts 222°